Location: Unspecified
(0.0000°N, 0.0000°E)
Time: 23:16:11
(UTC+00:00)

Hubble Space Telescope - Pass Details

Date: 23 April 2024
Orbit: 512 x 515 km, 28.5° (Epoch: 19 May)

Event Time Altitude Azimuth Distance (km) Brightness Sun altitude
Rises 19:37:13 0° 324° (NW) 2,596 5.0 -24.1°
Reaches altitude 10° 19:39:56 10° 342° (NNW) 1,712 3.7 -24.7°
Enters shadow 19:41:23 16° 1° (N) 1,377 3.0 -25.1°
